Date String (YYYY-MM-DD hh:mm:ss) UTC,Instrument flags,Ambient pressure (hPa),Sample flow (lpm),Bypass flow (lpm),Sample temperature (°C),Ambient temperature (°C),ASC tube jacket temperature (°C),LED temperature (°C),Box temperature (°C),Sample RH (%),Span deviation,Mass concentration (μg/m³),Mass concentration (μg/m³),Mass concentration (μg/m³)
DateTimeUTC,F1_M11,P_M11,Q1_M11,Q2_M11,T1_M11,T2_M11,T3_M11,T4_M11,T5_M11,U1_M11,ZSPAN_M11,X2_M11,X0_M11,X1_M11
2022-09-23 07:00:00,,0826.2,4.99,0.00,30.5,29.0,00.0,39.3,32.3,26.0,-002.9,0009.81,0014.03,0009.48
2022-09-23 07:01:00,,0826.0,5.00,0.00,30.5,29.0,00.0,39.3,32.3,26.0,-003.0,0009.78,0014.05,0009.45
2022-09-23 07:02:00,,0826.0,4.99,0.00,30.5,29.0,00.0,39.3,32.3,26.0,-003.0,0009.77,0013.80,0009.43
2022-09-23 07:03:00,,0826.0,5.00,0.00,30.5,29.0,00.0,39.3,32.3,26.0,-003.0,0009.81,0013.36,0009.45
2022-09-23 07:04:00,,0826.0,5.00,0.00,30.5,29.0,00.0,39.3,32.3,26.0,-003.1,0009.83,0013.39,0009.48
2022-09-23 07:05:00,,0826.0,4.98,0.00,30.5,29.0,00.0,39.3,32.4,26.0,-003.3,0009.82,0013.43,0009.48
2022-09-23 07:06:00,,0826.1,5.01,0.00,30.5,29.0,00.0,39.3,32.3,26.0,-003.4,0009.83,0013.42,0009.47
2022-09-23 07:07:00,,0826.0,5.00,0.00,30.5,29.0,00.0,39.3,32.3,26.1,-003.3,0009.89,0013.51,0009.52
2022-09-23 07:08:00,,0826.2,4.99,0.00,30.5,29.0,00.0,39.3,32.4,26.1,-003.1,0009.96,0013.73,0009.56
2022-09-23 07:09:00,,0826.2,5.00,0.00,30.5,29.0,00.0,39.3,32.3,26.1,-003.0,0010.01,0013.85,0009.61
2022-09-23 07:10:00,,0826.2,5.00,0.00,30.5,29.0,00.0,39.3,32.3,26.2,-002.8,0010.06,0013.62,0009.64
2022-09-23 07:11:00,,0826.2,5.00,0.00,30.5,29.0,00.0,39.3,32.3,26.2,-002.6,0010.15,0013.28,0009.71
2022-09-23 07:12:00,,0826.2,4.99,0.00,30.5,29.0,00.0,39.3,32.3,26.3,-002.4,0010.25,0013.45,0009.81
2022-09-23 07:13:00,,0826.2,5.00,0.00,30.5,29.0,00.0,39.3,32.3,26.3,-002.4,0010.32,0013.46,0009.90
2022-09-23 07:14:00,,0826.2,4.99,0.00,30.5,29.0,00.0,39.3,32.3,26.3,-002.4,0010.42,0013.54,0010.00
2022-09-23 07:15:00,,0826.2,5.00,0.00,30.6,29.0,00.0,39.3,32.4,26.4,-002.2,0010.54,0013.70,0010.10
2022-09-23 07:16:00,,0826.3,5.00,0.00,30.5,29.0,00.0,39.3,32.3,26.5,-002.2,0010.66,0013.89,0010.22
2022-09-23 07:17:00,,0826.3,5.00,0.00,30.5,29.0,00.0,39.3,32.3,26.5,-002.4,0010.78,0014.37,0010.34
2022-09-23 07:18:00,,0826.4,4.99,0.00,30.5,29.0,00.0,39.3,32.3,26.6,-002.6,0010.89,0014.53,0010.45
2022-09-23 07:19:00,,0826.3,5.01,0.00,30.5,29.0,00.0,39.3,32.3,26.7,-002.9,0010.97,0014.76,0010.54
2022-09-23 07:20:00,,0826.4,5.01,0.00,30.5,28.9,00.0,39.3,32.3,26.7,-003.0,0011.10,0015.40,0010.65
2022-09-23 07:21:00,,0826.3,4.98,0.00,30.5,28.9,00.0,39.3,32.3,26.7,-003.1,0011.20,0015.51,0010.77
2022-09-23 07:22:00,,0826.3,5.01,0.00,30.5,28.9,00.0,39.3,32.3,26.7,-003.1,0011.23,0015.43,0010.84
2022-09-23 07:23:00,,0826.4,5.00,0.00,30.5,28.9,00.0,39.3,32.3,26.7,-003.3,0011.22,0015.31,0010.83
2022-09-23 07:24:00,,0826.5,4.99,0.00,30.5,28.8,00.0,39.3,32.2,27.4,-003.3,0011.23,0015.49,0010.84
2022-09-23 07:25:00,,0826.5,5.01,0.00,30.4,28.6,00.0,39.3,32.2,27.4,-003.3,0011.17,0015.55,0010.79
2022-09-23 07:26:00,,0826.6,5.01,0.00,30.4,28.5,00.0,39.2,32.1,26.8,-003.3,0011.07,0015.42,0010.69
2022-09-23 07:27:00,,0826.6,4.99,0.00,30.4,28.6,00.0,39.2,32.1,26.7,-003.3,0010.98,0015.36,0010.58
2022-09-23 07:28:00,,0826.3,5.01,0.00,30.4,28.6,00.0,39.2,32.1,26.6,-003.1,0010.84,0014.90,0010.43
2022-09-23 07:29:00,,0826.3,5.00,0.00,30.4,28.7,00.0,39.2,32.1,26.4,-003.0,0010.69,0014.65,0010.29
2022-09-23 07:30:00,,0826.5,4.98,0.00,30.4,28.7,00.0,39.2,32.1,26.4,-002.8,0010.65,0014.44,0010.27
2022-09-23 07:31:00,,0826.5,5.01,0.00,30.4,28.7,00.0,39.2,32.2,26.5,-003.0,0010.64,0013.79,0010.28
2022-09-23 07:32:00,,0826.5,4.99,0.00,30.4,28.7,00.0,39.2,32.2,26.6,-003.1,0010.77,0014.00,0010.39
2022-09-23 07:33:00,,0826.5,5.00,0.00,30.4,28.7,00.0,39.2,32.2,26.4,-003.2,0010.73,0013.99,0010.35
2022-09-23 07:34:00,,0826.6,5.00,0.00,30.4,28.7,00.0,39.2,32.1,26.4,-002.9,0010.63,0013.85,0010.25
2022-09-23 07:35:00,,0826.5,4.99,0.00,30.4,28.7,00.0,39.2,32.1,26.4,-002.9,0010.55,0013.62,0010.17
2022-09-23 07:36:00,,0826.5,5.01,0.00,30.4,28.8,00.0,39.2,32.1,26.4,-003.0,0010.56,0013.61,0010.14
2022-09-23 07:37:00,,0826.6,5.00,0.00,30.4,28.8,00.0,39.2,32.2,26.3,-003.0,0010.57,0013.62,0010.16
2022-09-23 07:38:00,,0826.7,4.99,0.00,30.4,28.8,00.0,39.2,32.2,26.3,-003.0,0010.56,0013.57,0010.17
2022-09-23 07:39:00,,0826.7,5.01,0.00,30.4,28.9,00.0,39.2,32.2,26.4,-003.0,0010.62,0013.72,0010.23
2022-09-23 07:40:00,,0826.7,5.00,0.00,30.4,28.9,00.0,39.2,32.2,26.5,-003.0,0010.75,0014.16,0010.35
2022-09-23 07:41:00,,0826.7,5.01,0.00,30.4,28.9,00.0,39.2,32.2,26.5,-002.9,0010.86,0014.28,0010.45
2022-09-23 07:42:00,,0826.5,4.99,0.00,30.4,28.9,00.0,39.2,32.2,26.5,-002.9,0010.88,0014.31,0010.47
2022-09-23 07:43:00,,0826.5,5.00,0.00,30.4,28.9,00.0,39.2,32.2,26.6,-002.8,0010.77,0014.25,0010.36
2022-09-23 07:44:00,,0826.5,4.99,0.00,30.4,28.9,00.0,39.2,32.2,26.6,-002.9,0010.92,0014.56,0010.48
2022-09-23 07:45:00,,0826.5,5.01,0.00,30.4,28.9,00.0,39.2,32.2,26.6,-003.0,0011.09,0014.80,0010.66
2022-09-23 07:46:00,,0826.5,5.01,0.00,30.4,28.9,00.0,39.2,32.3,26.6,-002.9,0011.26,0015.05,0010.81
2022-09-23 07:47:00,,0826.5,4.99,0.00,30.4,28.9,00.0,39.2,32.3,26.6,-002.9,0011.41,0015.20,0010.97
2022-09-23 07:48:00,,0826.5,5.01,0.00,30.4,28.9,00.0,39.2,32.2,26.6,-002.9,0011.59,0015.43,0011.14
2022-09-23 07:49:00,,0826.5,4.99,0.00,30.4,28.9,00.0,39.2,32.2,26.6,-003.0,0011.81,0015.66,0011.36
2022-09-23 07:50:00,,0826.5,5.01,0.00,30.5,29.0,00.0,39.2,32.3,26.5,-003.2,0012.02,0016.10,0011.57
2022-09-23 07:51:00,,0826.4,4.99,0.00,30.5,29.0,00.0,39.2,32.3,26.4,-003.3,0012.10,0016.49,0011.64
2022-09-23 07:52:00,,0826.3,5.01,0.00,30.5,29.0,00.0,39.2,32.3,26.3,-003.4,0012.10,0016.56,0011.62
2022-09-23 07:53:00,,0826.4,4.99,0.00,30.5,29.0,00.0,39.2,32.3,26.3,-003.4,0012.08,0016.60,0011.59
2022-09-23 07:54:00,,0826.2,5.01,0.00,30.5,29.0,00.0,39.2,32.3,26.3,-003.3,0012.05,0016.74,0011.57
2022-09-23 07:55:00,,0826.2,5.01,0.00,30.5,29.0,00.0,39.2,32.3,26.3,-003.3,0011.97,0016.84,0011.51
2022-09-23 07:56:00,,0826.2,4.99,0.00,30.5,29.0,00.0,39.2,32.3,26.4,-003.4,0012.07,0017.05,0011.58
2022-09-23 07:57:00,,0826.1,5.01,0.00,30.5,29.0,00.0,39.2,32.3,26.3,-003.6,0012.19,0017.25,0011.69
2022-09-23 07:58:00,,0826.0,5.01,0.00,30.5,28.9,00.0,39.2,32.3,26.3,-003.5,0012.36,0017.45,0011.85
2022-09-23 07:59:00,,0826.0,4.99,0.00,30.5,28.9,00.0,39.2,32.3,26.3,-003.5,0012.55,0017.81,0012.00
